CDT,Max TemperatureF,Mean TemperatureF,Min TemperatureF,Max Dew PointF,MeanDew PointF,Min DewpointF,Max Humidity, Mean Humidity, Min Humidity, Max Sea Level PressureIn, Mean Sea Level PressureIn, Min Sea Level PressureIn, Max VisibilityMiles, Mean VisibilityMiles, Min VisibilityMiles, Max Wind SpeedMPH, Mean Wind SpeedMPH, Max Gust SpeedMPH,PrecipitationIn, CloudCover, Events, WindDirDegrees
2014-5-1,48,44,39,40,38,36,90,83,71,29.83,29.75,29.67,10,9,2,16,12,20,0.05,8,Rain,315
2014-5-2,60,52,43,45,41,37,85,72,48,29.82,29.69,29.58,10,10,10,21,7,28,0.00,6,Rain,249
2014-5-3,61,50,40,39,35,29,76,55,33,29.94,29.82,29.70,10,10,10,25,10,30,0.00,4,,288
2014-5-4,59,47,36,36,29,24,75,50,27,30.11,30.02,29.95,10,10,7,14,8,18,0.00,2,,32
2014-5-5,65,56,47,38,32,30,70,42,28,29.99,29.95,29.90,10,10,7,15,5,20,0.00,4,,106
2014-5-6,66,57,48,39,35,32,59,41,28,29.96,29.86,29.77,10,10,10,20,12,29,0.00,1,,108
2014-5-7,67,58,50,50,44,36,83,59,49,29.78,29.71,29.60,10,10,4,38,13,43,0.24,5,Rain-Thunderstorm,91
2014-5-8,75,64,52,61,54,48,93,81,50,29.77,29.63,29.53,10,8,1,22,9,31,0.43,4,Rain-Thunderstorm,91
2014-5-9,63,52,42,57,45,39,89,76,55,29.81,29.66,29.52,10,9,5,26,14,33,0.00,6,,249
2014-5-10,69,53,37,52,43,34,91,69,37,29.89,29.84,29.77,10,10,7,16,6,23,0.01,2,Rain-Thunderstorm,151
2014-5-11,71,60,49,58,52,46,90,74,54,29.90,29.82,29.73,10,10,1,17,3,23,1.26,4,Rain-Thunderstorm,94
2014-5-12,67,58,50,61,56,46,92,88,81,29.81,29.72,29.66,10,8,2,15,9,21,0.39,7,Rain-Thunderstorm,233
2014-5-13,53,48,43,46,40,35,90,71,52,30.19,30.03,29.81,10,10,5,22,14,26,0.00,7,,288
2014-5-14,60,48,35,38,32,28,90,55,31,30.22,30.17,30.10,10,10,10,13,5,16,0.00,3,,298
2014-5-15,50,46,41,34,32,28,73,59,43,30.14,30.10,30.07,10,10,10,20,12,24,0.00,8,,1
2014-5-16,54,46,38,36,29,22,87,55,31,30.10,30.06,30.03,10,10,10,14,4,18,0.00,7,,308
2014-5-17,66,51,36,37,30,25,76,46,22,30.06,30.02,29.98,10,10,10,17,7,28,0.00,1,,233
2014-5-18,72,58,45,40,34,30,69,41,22,30.10,30.04,29.98,10,10,10,22,8,28,0.00,1,,201
2014-5-19,60,56,53,51,47,37,91,73,42,30.03,29.87,29.75,10,8,2,21,13,29,0.33,8,Rain-Thunderstorm,130
2014-5-20,70,59,48,61,55,47,94,85,68,29.88,29.82,29.74,10,4,0,9,2,,0.00,3,Fog,214
2014-5-21,66,58,50,54,48,45,93,69,51,30.12,29.99,29.84,10,9,2,16,7,21,0.00,2,,300
2014-5-22,70,56,41,47,44,39,93,65,34,30.20,30.16,30.11,10,9,2,13,3,17,0.00,0,,333
2014-5-23,77,60,43,49,41,37,90,53,24,30.23,30.18,30.11,10,10,7,9,3,,0.00,0,,123
2014-5-24,80,66,53,47,43,39,77,41,24,30.17,30.11,30.03,10,10,10,14,5,20,0.00,1,,161
2014-5-25,80,67,54,60,51,39,73,52,34,30.07,29.99,29.91,10,10,10,15,8,21,0.00,3,,180
2014-5-26,84,74,64,64,62,58,88,68,41,29.94,29.90,29.84,10,10,7,14,5,9,0.00,2,Rain,218
2014-5-27,77,70,64,66,64,61,93,85,68,29.97,29.90,29.86,10,8,2,18,5,22,0.01,7,Rain-Thunderstorm,6
2014-5-28,80,70,60,61,54,46,91,61,31,30.07,30.03,29.96,10,10,10,12,6,16,0.00,3,,63
2014-5-29,83,66,50,51,44,36,87,46,19,30.14,30.08,30.04,10,10,7,14,4,18,0.00,0,,116
2014-5-30,87,75,63,61,55,46,72,47,33,30.13,30.08,30.01,10,10,10,13,6,21,0.00,1,,136
2014-5-31,85,76,68,69,61,50,92,63,38,30.08,30.00,29.89,10,10,1,34,10,41,1.37,3,Rain-Thunderstorm,172